This demonstration page uses our WeatherBlox Daily Observations layout. Learn more.

Left ArrowRight Arrow

Hourly Observations for July 2, 2022

Temp ( °F °C ) Dew Point ( °F °C ) Humidity (%) Winds ( mph kmh ) Pressure ( in mb ) Visibility ( mi km ) Precip ( " mm )
12:53 am 00:53 Clear 72 22.2 48 8.9 43 43 Calm 29.83 1010 10 16 0.00 0.00
1:53 am 01:53 Clear 70 21.1 45 7.2 41 41 NNE 3 6 29.83 1010 10 16 0.00 0.00
2:53 am 02:53 Clear 67 19.4 44 6.7 44 44 Calm 29.84 1011 10 16 0.00 0.00
3:53 am 03:53 Clear 67 19.4 44 6.7 44 44 Calm 29.84 1011 10 16 0.00 0.00
4:53 am 04:53 Clear 70 21.1 48 8.9 46 46 SSW 9 15 29.85 1011 10 16 0.00 0.00
5:53 am 05:53 Sunny 64 17.8 48 8.9 56 56 SSE 7 11 29.86 1011 10 16 0.00 0.00
6:53 am 06:53 Sunny 65 18.3 49 9.4 56 56 SSE 6 9 29.87 1011 10 16 0.00 0.00
7:53 am 07:53 Sunny 68 20 49 9.4 51 51 SSE 5 7 29.87 1012 10 16 0.00 0.00
8:53 am 08:53 Sunny 70 21.1 48 8.9 46 46 S 6 9 29.87 1011 10 16 0.00 0.00
9:53 am 09:53 Sunny 73 22.8 47 8.3 40 40 S 6 9 29.85 1011 10 16 0.00 0.00
10:53 am 10:53 Sunny 77 25 47 8.3 35 35 S 6 9 29.83 1010 10 16 0.00 0.00
11:53 am 11:53 Sunny 81 27.2 46 7.8 29 29 S 9 15 29.83 1010 10 16 0.00 0.00
12:53 pm 12:53 Sunny 84 28.9 44 6.7 25 25 SSW 14 22 29.81 1009 10 16 0.00 0.00
1:53 pm 13:53 Sunny 86 30 43 6.1 22 22 S 14 22 29.80 1009 10 16 0.00 0.00
2:53 pm 14:53 Sunny 87 30.6 43 6.1 21 21 SSE 15 24 29.78 1009 10 16 0.00 0.00
3:53 pm 15:53 Sunny 87 30.6 45 7.2 23 23 SSW 13 20 29.76 1008 10 16 0.00 0.00
4:53 pm 16:53 Sunny 89 31.7 46 7.8 23 23 S 16 26 29.74 1007 10 16 0.00 0.00
5:53 pm 17:53 Sunny 85 29.4 53 11.7 33 33 SSE 18 30 29.73 1007 10 16 0.00 0.00
6:53 pm 18:53 Sunny 84 28.9 52 11.1 33 33 S 15 24 29.73 1007 10 16 0.00 0.00
7:53 pm 19:53 Sunny 83 28.3 49 9.4 31 31 S 17 28 29.73 1007 10 16 0.00 0.00
8:53 pm 20:53 Cloudy 81 27.2 45 7.2 28 28 S 14 22 29.75 1008 10 16 0.00 0.00
9:53 pm 21:53 Cloudy 79 26.1 45 7.2 30 30 S 18 30 29.77 1008 10 16 0.00 0.00
10:53 pm 22:53 Cloudy 77 25 48 8.9 36 36 SSW 17 28 29.79 1009 10 16 0.00 0.00
11:53 pm 23:53 Mostly Cloudy 75 23.9 48 8.9 39 39 S 16 26 29.80 1009 10 16 0.00 0.00

Powered by AerisWeather